Location: Newark
(49.4900°N, 20.6656°E)
Time: 11:22:56
(UTC+00:00)

STARLINK-1739 - Pass Details

Date: 24 September 2020
Orbit: 378 x 381 km, 53.0° (Epoch: 25 October)

Event Time Altitude Azimuth Distance (km) Brightness Sun altitude
Exits shadow 01:28:19 16° 61° (ENE) 1,099 6.0 -28.0°
Drops below altitude 10° 01:29:07 10° 66° (ENE) 1,406 6.6 -27.9°
Sets 01:31:12 0° 72° (ENE) 2,261 7.9 -27.6°
